TimePDT,TemperatureF,Dew PointF,Humidity,Sea Level PressureIn,VisibilityMPH,Wind Direction,Wind SpeedMPH,Gust SpeedMPH,PrecipitationIn,Events,Conditions,WindDirDegrees,DateUTC
12:15 AM,48.2,24.8,40,30.18,10.0,West,6.9,-,N/A,,Clear,280,2013-06-22 07:15:00
12:35 AM,48.2,26.6,43,30.18,10.0,West,8.1,-,N/A,,Clear,270,2013-06-22 07:35:00
12:55 AM,48.2,24.8,40,30.18,10.0,West,10.4,-,N/A,,Clear,270,2013-06-22 07:55:00
1:15 AM,48.2,24.8,40,30.18,10.0,WNW,8.1,-,N/A,,Clear,290,2013-06-22 08:15:00
1:35 AM,46.4,24.8,43,30.17,10.0,West,9.2,-,N/A,,Clear,270,2013-06-22 08:35:00
1:55 AM,44.6,24.8,46,30.18,10.0,West,9.2,-,N/A,,Clear,270,2013-06-22 08:55:00
2:15 AM,46.4,24.8,43,30.18,10.0,West,10.4,-,N/A,,Clear,270,2013-06-22 09:15:00
2:35 AM,46.4,24.8,43,30.17,10.0,West,12.7,-,N/A,,Clear,260,2013-06-22 09:35:00
2:55 AM,44.6,24.8,46,30.17,10.0,West,10.4,-,N/A,,Clear,270,2013-06-22 09:55:00
3:15 AM,42.8,24.8,49,30.17,10.0,West,10.4,-,N/A,,Clear,270,2013-06-22 10:15:00
3:35 AM,42.8,24.8,49,30.17,10.0,West,10.4,-,N/A,,Clear,280,2013-06-22 10:35:00
3:55 AM,42.8,24.8,49,30.17,10.0,West,11.5,-,N/A,,Clear,280,2013-06-22 10:55:00
4:15 AM,42.8,24.8,49,30.17,10.0,West,13.8,-,N/A,,Clear,270,2013-06-22 11:15:00
4:35 AM,41.0,24.8,53,30.17,10.0,WNW,8.1,-,N/A,,Clear,290,2013-06-22 11:35:00
4:55 AM,41.0,24.8,53,30.17,10.0,WNW,8.1,-,N/A,,Clear,290,2013-06-22 11:55:00
5:15 AM,41.0,24.8,53,30.17,10.0,West,8.1,-,N/A,,Clear,280,2013-06-22 12:15:00
5:35 AM,39.2,24.8,56,30.17,10.0,West,5.8,-,N/A,,Clear,270,2013-06-22 12:35:00
5:55 AM,41.0,24.8,53,30.18,10.0,West,6.9,-,N/A,,Clear,270,2013-06-22 12:55:00
6:15 AM,41.0,24.8,53,30.18,10.0,NW,4.6,-,N/A,,Clear,310,2013-06-22 13:15:00
6:35 AM,42.8,24.8,49,30.18,10.0,North,4.6,-,N/A,,Clear,360,2013-06-22 13:35:00
6:55 AM,46.4,24.8,43,30.18,10.0,WNW,5.8,-,N/A,,Clear,300,2013-06-22 13:55:00
7:15 AM,51.8,24.8,35,30.18,10.0,West,11.5,-,N/A,,Clear,270,2013-06-22 14:15:00
7:35 AM,53.6,23.0,30,30.18,10.0,West,13.8,-,N/A,,Clear,270,2013-06-22 14:35:00
7:55 AM,55.4,23.0,29,30.19,10.0,West,9.2,-,N/A,,Clear,260,2013-06-22 14:55:00
8:15 AM,57.2,23.0,27,30.19,10.0,WNW,4.6,-,N/A,,Clear,300,2013-06-22 15:15:00
8:35 AM,59.0,21.2,23,30.19,10.0,West,4.6,-,N/A,,Clear,260,2013-06-22 15:35:00
8:55 AM,60.8,21.2,22,30.19,10.0,Calm,Calm,-,N/A,,Clear,0,2013-06-22 15:55:00
9:15 AM,60.8,21.2,22,30.18,10.0,NNE,3.5,-,N/A,,Clear,20,2013-06-22 16:15:00
9:35 AM,62.6,21.2,20,30.18,10.0,NW,5.8,-,N/A,,Clear,310,2013-06-22 16:35:00
9:55 AM,62.6,21.2,20,30.18,10.0,Calm,Calm,-,N/A,,Clear,0,2013-06-22 16:55:00
10:15 AM,64.4,21.2,19,30.18,10.0,Calm,Calm,-,N/A,,Clear,0,2013-06-22 17:15:00
10:35 AM,66.2,21.2,18,30.18,10.0,WNW,4.6,-,N/A,,Clear,290,2013-06-22 17:35:00
10:55 AM,68.0,23.0,18,30.18,10.0,SE,3.5,-,N/A,,Clear,130,2013-06-22 17:55:00
11:15 AM,69.8,21.2,16,30.18,10.0,East,9.2,-,N/A,,Clear,80,2013-06-22 18:15:00
11:35 AM,69.8,21.2,16,30.17,10.0,ESE,8.1,-,N/A,,Clear,110,2013-06-22 18:35:00
11:55 AM,69.8,21.2,16,30.17,10.0,ESE,5.8,-,N/A,,Clear,120,2013-06-22 18:55:00
12:15 PM,71.6,19.4,14,30.16,10.0,East,5.8,-,N/A,,Clear,100,2013-06-22 19:15:00
12:35 PM,71.6,21.2,15,30.16,10.0,East,6.9,-,N/A,,Clear,100,2013-06-22 19:35:00
12:55 PM,71.6,21.2,15,30.15,10.0,SE,5.8,-,N/A,,Clear,130,2013-06-22 19:55:00
1:15 PM,73.4,21.2,14,30.14,10.0,SSE,10.4,17.3,N/A,,Clear,150,2013-06-22 20:15:00
1:35 PM,75.2,21.2,13,30.14,10.0,SSE,6.9,-,N/A,,Clear,160,2013-06-22 20:35:00
1:55 PM,75.2,23.0,14,30.13,10.0,South,11.5,-,N/A,,Clear,170,2013-06-22 20:55:00
2:15 PM,75.2,23.0,14,30.12,10.0,ENE,6.9,16.1,N/A,,Clear,70,2013-06-22 21:15:00
2:35 PM,77.0,23.0,13,30.12,10.0,SE,8.1,17.3,N/A,,Clear,130,2013-06-22 21:35:00
2:55 PM,78.8,21.2,12,30.11,10.0,WNW,10.4,24.2,N/A,,Clear,290,2013-06-22 21:55:00
3:15 PM,78.8,21.2,12,30.11,10.0,NNW,15.0,20.7,N/A,,Clear,330,2013-06-22 22:15:00
3:35 PM,77.0,19.4,12,30.10,10.0,WNW,17.3,25.3,N/A,,Clear,290,2013-06-22 22:35:00
3:55 PM,78.8,23.0,13,30.10,10.0,NW,18.4,26.5,N/A,,Clear,310,2013-06-22 22:55:00
4:15 PM,77.0,23.0,13,30.09,10.0,NW,19.6,27.6,N/A,,Clear,310,2013-06-22 23:15:00
4:35 PM,77.0,23.0,13,30.09,10.0,WNW,16.1,24.2,N/A,,Clear,300,2013-06-22 23:35:00
4:55 PM,77.0,23.0,13,30.09,10.0,NW,18.4,26.5,N/A,,Clear,310,2013-06-22 23:55:00
5:15 PM,77.0,21.2,12,30.09,10.0,West,11.5,31.1,N/A,,Clear,280,2013-06-23 00:15:00
5:35 PM,75.2,21.2,13,30.08,10.0,West,13.8,21.9,N/A,,Clear,280,2013-06-23 00:35:00
5:55 PM,75.2,21.2,13,30.07,10.0,West,10.4,23.0,N/A,,Clear,280,2013-06-23 00:55:00
6:15 PM,75.2,26.6,17,30.08,10.0,WNW,15.0,26.5,N/A,,Clear,300,2013-06-23 01:15:00
6:35 PM,73.4,30.2,20,30.08,10.0,NW,17.3,23.0,N/A,,Clear,310,2013-06-23 01:35:00
6:55 PM,73.4,28.4,19,30.08,10.0,WNW,15.0,26.5,N/A,,Clear,300,2013-06-23 01:55:00
7:15 PM,69.8,32.0,25,30.08,10.0,NW,17.3,25.3,N/A,,Clear,310,2013-06-23 02:15:00
7:35 PM,69.8,32.0,25,30.09,10.0,NW,13.8,17.3,N/A,,Clear,310,2013-06-23 02:35:00
7:55 PM,68.0,32.0,26,30.09,10.0,WNW,13.8,19.6,N/A,,Clear,300,2013-06-23 02:55:00
8:15 PM,66.2,32.0,28,30.09,10.0,NW,9.2,-,N/A,,Clear,310,2013-06-23 03:15:00
8:35 PM,62.6,32.0,32,30.10,10.0,NW,5.8,-,N/A,,Clear,310,2013-06-23 03:35:00
8:55 PM,60.8,32.0,34,30.10,10.0,NNW,4.6,-,N/A,,Clear,330,2013-06-23 03:55:00
9:15 PM,60.8,32.0,34,30.10,10.0,West,5.8,-,N/A,,Mostly Cloudy,270,2013-06-23 04:15:00
9:35 PM,59.0,32.0,36,30.12,10.0,Calm,Calm,-,N/A,,Mostly Cloudy,0,2013-06-23 04:35:00
9:55 PM,59.0,32.0,36,30.12,10.0,South,3.5,-,N/A,,Scattered Clouds,180,2013-06-23 04:55:00
10:15 PM,57.2,32.0,38,30.12,10.0,WSW,8.1,-,N/A,,Clear,250,2013-06-23 05:15:00
10:35 PM,59.0,32.0,36,30.12,10.0,West,3.5,-,N/A,,Clear,260,2013-06-23 05:35:00
10:55 PM,57.2,32.0,38,30.12,10.0,WNW,6.9,-,N/A,,Clear,290,2013-06-23 05:55:00
11:15 PM,53.6,32.0,44,30.12,10.0,West,6.9,-,N/A,,Clear,270,2013-06-23 06:15:00
11:35 PM,55.4,32.0,41,30.12,10.0,West,9.2,-,N/A,,Clear,280,2013-06-23 06:35:00
11:55 PM,53.6,32.0,44,30.12,10.0,West,9.2,-,N/A,,Clear,270,2013-06-23 06:55:00